World > North America > United States > New Jersey > Freehold  

Freehold, NJ Hourly Weather Updates

Feedback E-mail the Weather

Quick Clicks

Freehold, NJ Weather Maps

°F °C°F °C
Freehold Weather Map
UTC Time: 4/17/2024, 05:13
Your Time:

Freehold, NJ Regional Weather

Expires:202404170500;;877308
ASUS41 KOKX 170410
RWROKX

Regional Weather Roundup
National Weather Service New York NY
1200 AM EDT WED APR 17 2024

Note: "FAIR" indicates few or no clouds below 12,000 feet with no
significant weather and/or obstructions to visibility.


NJZ001-105-106-008-010-013-015-019>022-104-170500-
New Jersey
  
CITY           SKY/WX    TMP DP  RH WIND       PRES   REMARKS
Newark/Liberty PTCLDY    55  38  52 SW6       30.16R                  
Teterboro      CLEAR     55  39  54 CALM      30.15R                  
Caldwell       CLEAR     51  37  58 CALM      30.16R                  
Somerville     CLEAR     51  43  74 CALM      30.15R                  
Linden         CLEAR     56  35  43 CALM      30.17S                  
Perth Amboy    NOT AVBL                                               
Sussex         CLEAR     47  35  63 CALM      30.17S                  
Andover          N/A     48  41  76 CALM      30.16S                  
Trenton        CLEAR     53  38  56 SE3       30.15S                  
Millville      CLEAR     55  44  66 CALM      30.17R                  
Atlantic City  CLEAR     54  41  61 S8        30.18S                  
Wrightstown    CLEAR     51  35  55 S6        30.16R                  
Toms River     CLEAR     52  34  50 S6        30.17F                  
Belmar         CLEAR     52  34  50 W3        30.18S                  
$$
 

SKY/WX - Weather  TMP - Temperature  DP - Dew Point  RH - Humidity
WIND - Wind Direction/Speed PRES - Barometric Pressure VSB - Visibility
WCI - Wind Chill Index E13G22 Wind - East Wind 13 mph/Gusts of 22 mph

Trending Headlines

Trending Entertainment Headlines

Freehold Radar Loop

Use the map search tool if you want to place a location marker on the radar map...

Freehold Quick Facts

National Two Day Weather Forecast


E-mail the Freehold Weather Forecast

Voice your opinion or tell us about page issues...